Overview Statistics Trail Chart Weather Telemetry Raw packets
 

This is the latest recevied weather packets stored in our database for station/object WI0K. If no packets are shown the sender has not sent any weather packets the latest 10 day(s).

<< 21 22 23 24 25 26 27 >>
Time Temp. Humidity Pressure Rain* Wind** Luminosity Snow
1788518112 16.11° C 56% 1017 hPa 0 mm - 0 W/m² -
1788517834 16.11° C 56% 1016.9 hPa 0 mm - 0 W/m² -
1788517511 16.67° C 56% 1016.9 hPa 0 mm - 0 W/m² -
1788517210 16.11° C 56% 1016.9 hPa 0 mm - 0 W/m² -
1788516909 16.11° C 57% 1016.9 hPa 0 mm - 0 W/m² -
1788516608 16.11° C 59% 1016.9 hPa 0 mm - 0 W/m² -
1788516308 16.67° C 56% 1016.8 hPa 0 mm - 0 W/m² -
1788516007 16.67° C 56% 1016.8 hPa 0 mm - 0 W/m² -
1788515706 16.67° C 56% 1016.6 hPa 0 mm - 0 W/m² -
1788515406 17.22° C 55% 1016.6 hPa 0 mm - 0 W/m² -
1788515105 17.22° C 56% 1016.6 hPa 0 mm - 0 W/m² -
1788514804 17.78° C 53% 1016.5 hPa 0 mm - 0 W/m² -
1788514504 17.78° C 56% 1016.5 hPa 0 mm - 0 W/m² -
1788514202 18.33° C 52% 1016.5 hPa 0 mm - 0 W/m² -
1788513902 18.89° C 52% 1016.3 hPa 0 mm - 0 W/m² -
1788513601 18.89° C 51% 1016.4 hPa 0 mm - 0 W/m² -
1788513300 19.44° C 50% 1016.3 hPa 0 mm - 0 W/m² -
1788513000 20° C 49% 1016.3 hPa 0 mm - 0 W/m² -
1788512699 20.56° C 45% 1016.2 hPa 0 mm - 0 W/m² -
1788512398 20.56° C 44% 1016.1 hPa 0 mm - 0 W/m² -
1788512098 20.56° C 44% 1016.1 hPa 0 mm - 0 W/m² -
1788511797 21.11° C 43% 1015.9 hPa 0 mm - 0 W/m² -
1788511496 21.11° C 42% 1015.8 hPa 0 mm - 0 W/m² -
1788511195 21.11° C 41% 1015.8 hPa 0 mm - 0 W/m² -
1788510895 21.11° C 41% 1015.8 hPa 0 mm - 0 W/m² -

* Rain latest hour (hover to see other rain measurements)
** Current wind speed in m/s (hover to see current wind gust speed)